This demonstration page uses our WeatherBlox Daily Observations layout. Learn more.

Left ArrowRight Arrow

39.01783, -85.05884

Hourly Observations for November 3, 2021

Temp ( °F °C ) Dew Point ( °F °C ) Humidity (%) Winds ( mph kmh ) Pressure ( in mb ) Visibility ( mi km ) Precip ( " mm )
12:52 am 00:52 Mostly Clear 34 1.1 26 -3.3 73 73 N N/A 30.37 1028 10 16 N/A
1:52 am 01:52 Partly Cloudy 31 -0.6 25 -3.9 79 79 N N/A 30.37 1028 10 16 N/A
2:52 am 02:52 Mostly Clear 30 -1.1 25 -3.9 82 82 W 5 7 30.37 1029 10 16 N/A
3:52 am 03:52 Mostly Clear 30 -1.1 26 -3.3 85 85 N N/A 30.38 1029 10 16 N/A
4:52 am 04:52 Clear 31 -0.6 25 -3.9 79 79 N N/A 30.37 1029 10 16 N/A
5:52 am 05:52 Partly Cloudy 28 -2.2 24 -4.4 85 85 N N/A 30.38 1029 10 16 N/A
6:52 am 06:52 Mostly Clear 28 -2.2 24 -4.4 85 85 N N/A 30.39 1029 10 16 N/A
7:52 am 07:52 Mostly Clear 28 -2.2 24 -4.4 85 85 WNW 3 6 30.40 1029 10 16 N/A
8:52 am 08:52 Partly Cloudy 29 -1.7 25 -3.9 85 85 N N/A 30.41 1030 10 16 N/A
9:52 am 09:52 Mostly Cloudy 35 1.7 28 -2.2 76 76 N N/A 30.42 1030 10 16 N/A
10:52 am 10:52 Mostly Cloudy 40 4.4 29 -1.7 65 65 N 5 7 30.42 1030 10 16 N/A
11:52 am 11:52 Partly Cloudy 45 7.2 27 -2.8 49 49 NE 3 6 30.42 1030 10 16 N/A
12:52 pm 12:52 Partly Cloudy 46 7.8 24 -4.4 42 42 VRB 3 6 30.41 1030 10 16 N/A
1:52 pm 13:52 Mostly Cloudy 48 8.9 24 -4.4 39 39 NNW 3 6 30.37 1029 10 16 N/A
2:52 pm 14:52 Mostly Cloudy 49 9.4 22 -5.6 35 35 NE 6 9 30.35 1028 10 16 N/A
3:52 pm 15:52 Mostly Cloudy 49 9.4 22 -5.6 35 35 ESE 5 7 30.33 1027 10 16 N/A
4:52 pm 16:52 Mostly Cloudy 48 8.9 23 -5 37 37 N N/A 30.32 1027 10 16 N/A
5:52 pm 17:52 Mostly Cloudy 47 8.3 21 -6.1 36 36 N 6 9 30.32 1027 10 16 N/A
6:52 pm 18:52 Partly Cloudy 45 7.2 21 -6.1 39 39 N 5 7 30.32 1027 10 16 N/A
7:52 pm 19:52 Partly Cloudy 44 6.7 24 -4.4 45 45 NNE 3 6 30.33 1027 10 16 N/A
8:52 pm 20:52 Partly Cloudy 40 4.4 25 -3.9 55 55 N N/A 30.33 1027 10 16 N/A
9:52 pm 21:52 Clear 38 3.3 26 -3.3 62 62 N N/A 30.33 1027 10 16 N/A
10:52 pm 22:52 Clear 36 2.2 26 -3.3 67 67 N N/A 30.34 1027 10 16 N/A
11:52 pm 23:52 Clear 35 1.7 26 -3.3 70 70 N N/A 30.34 1027 10 16 N/A

Powered by AerisWeather